Flag for U.S.A. Weather past 2 weeks in Hayward, California, U.S.A.

Now
65 °F

Sunny.


Feels Like: 65 °F
Forecast: 55 / 78 °F
Wind: 12 mph from West

Location: Hayward Air Terminal

Current Time: Sep 4, 2015 at 6:44:01 PM

Latest Report: Sep 4, 2015 at 5:54 PM


Visibility: 10 mi

Pressure: 29.90 "Hg

Humidity: 63%

Dew point: 52 °F

Location of HaywardLocation

Historic Weather in Hayward — Graph

°F

Hayward temperature yesterday

Maximum temperature yesterday: 69 °F (at 1:54 PM)
Minimum temperature yesterday: 60 °F (at 11:54 PM)
Average temperature yesterday: 64 °F

Past Weeks' High & Low Weather Summary

 TemperatureHumidityPressure
High92 °F (Aug 28, 2:54 PM)93% (Aug 29, 7:54 AM)30.09 "Hg (Aug 29, 7:54 AM)
Low54 °F (Sep 4, 2:54 AM)25% (Aug 27, 1:54 PM)29.86 "Hg (Sep 4, 2:54 AM)
Average67 °F71%29.97 "Hg
* Reported Aug 20 4:54 PM — Sep 4 4:54 PM, Hayward, Weather by CustomWeather, © 2015

Note: Actual official high and low records may vary slightly from our data, if they occured in-between our weather recording intervals... More about our weather records

Advertising

Hayward weather history for previous 24 hours

 ConditionsComfort  
Time TempWeatherWind HumidityBarometerVisibility
4:54 PM
Fri, Sep 4
66 °FSunny.13 mph63%29.90 "Hg10 mi
3:54 PM68 °FSunny.16 mph57%29.91 "Hg10 mi
2:54 PM68 °FSunny.17 mph55%29.91 "Hg9 mi
1:54 PM68 °FSunny.16 mph51%29.91 "Hg10 mi
12:54 PM67 °FSunny.18 mph51%29.92 "Hg10 mi
11:54 AM66 °FSunny.15 mph50%29.93 "Hg10 mi
10:54 AM64 °FSunny.8 mph54%29.93 "Hg10 mi
9:54 AM64 °FSunny.9 mph56%29.92 "Hg10 mi
8:54 AM60 °FSunny.9 mph67%29.92 "Hg10 mi
7:54 AM57 °FSunny.8 mph83%29.90 "Hg7 mi
6:54 AM55 °FClear.7 mph83%29.89 "Hg7 mi
5:54 AM55 °FClear.7 mph80%29.87 "Hg9 mi
4:54 AM54 °FClear.No wind80%29.87 "Hg9 mi
3:54 AM54 °FClear.No wind83%29.86 "Hg9 mi
2:54 AM54 °FClear.5 mph83%29.86 "Hg8 mi
1:54 AM57 °FClear.No wind78%29.86 "Hg8 mi
12:54 AM60 °FClear.No wind72%29.87 "Hg9 mi
11:54 PM
Thu, Sep 3
60 °FClear.6 mph75%29.87 "Hg8 mi
10:54 PM61 °FClear.5 mph72%29.87 "Hg8 mi
9:54 PM61 °FClear.7 mph72%29.88 "Hg8 mi
8:54 PM61 °FClear.7 mph72%29.87 "Hg8 mi
7:54 PM62 °FSunny.7 mph73%29.87 "Hg8 mi
6:54 PM64 °FSunny.10 mph68%29.87 "Hg8 mi
Weather by CustomWeather, © 2015

See weather overviewHow to use our weather pages